Weather in Kapitanshchino

Russia / Lipetsk Oblast     52°42′54″N   39°46′54″E
temp.,
°C
wind,
m/s
gust,
m/s
humid.,
%
clouds,
%
prec.,
mm/h
press.,
hPa
HPBL,
m
28 september, tue
tue2800:00+9n4888100 0.1 1020635
03:00+8ne4885100 0.3 1021652
06:00+8ne5887100 0.1 1022558
09:00+7ne5783100 0.2 1024891
12:00+7ne5781100 0.1 10261068
15:00+8ne5673100 0.2 1027887
18:00+6ne4875100 0.1 1029717
21:00+6ne3876100 0.1 1031609
29 september, wed
wed2900:00+4nne35845 0.0 1032122
03:00+3n35855 0.0 1033105
06:00+2nne36865 0.0 1033135
09:00+6nne466489 0.0 1034405
12:00+10ne45466 0.0 10331180
15:00+11nne45414 0.0 10321355
18:00+8nne33575 0.0 1033146
21:00+6nne236599 0.0 103361
30 september, thu
thu3000:00+5n227076 0.0 103333
03:00+4n22755 0.0 103429
06:00+4n23805 0.0 103452
09:00+8nne34685 0.0 1034332
12:00+11ne33526 0.0 10341179
15:00+13ne334612 0.0 10331435
18:00+9nne23615 0.0 103361
21:00+8ne227059 0.0 103433
1 october, fri
fri100:00+7nne117469 0.0 103514
03:00+6nnw11767 0.0 103510
06:00+7nnw227398 0.0 103649
09:00+10nnw2264100 0.0 1036212
12:00+12nnw2256100 0.0 1036526
15:00+13n225339 0.0 1035732
18:00+11nw116380 0.0 103517
21:00+11nw1163100 0.0 103515
2 october, sat
sat200:00+10nnw1165100 0.0 103517
03:00+10nnw2268100 0.0 103531
06:00+10nne2271100 0.0 103433
09:00+11nne1269100 0.0 1035121
12:00+13nne225899 0.0 1034458
15:00+15ne225371 0.0 1034823
18:00+11ne236768 0.0 103338
21:00+10ne227243 0.0 103438